Find NOAA 2

NORAD ID: 6235 Int'l Des: 1972-082 Owner: NOAA Country: US operational
LEOCIRCULARRETROGRADESSO

当前视图

正在加载3D地球...

About NOAA 2

NOAA 2 (NORAD 6235) is a satellite by NOAA of US. It operates in LEO, CIRCULAR, RETROGRADE, SSO orbit

即将过境

Passes for default location (London). Set your location on the main map for personalized predictions.

高度历史

Loading altitude history...

两行轨道根数

1 6235U 72082A 26195.02387787 -.00000029 00000-0 11045-3 0 9996
2 6235 102.0076 213.8891 0004557 117.4349 298.4337 12.53215844458318
Epoch: Jul 14, 2026 • Age: 16 hours

当前状态

高度 1450.6 km
远地点 / 近地点 N/A
速度 7.14 km/s
星下点 15.53°N, 141.76°W
类型 weather

Most Searched